Flag for Canada Weather past 2 weeks in Edmundston, New Brunswick, Canada

Now
33 °F

Chilly.


Feels Like: 33 °F
Forecast: 33 / 45 °F
Wind: No wind

Location: St Leonard

Current Time: Apr 24, 2015 at 11:31:51 PM

Latest Report: Apr 24, 2015 at 10:00 PM


Visibility: N/A

Pressure: 29.57 "Hg

Humidity: 94%

Dew point: 31 °F

Location of EdmundstonLocation

Historic Weather in Edmundston — Graph

°F

Edmundston temperature yesterday

Maximum temperature yesterday: 43 °F (at 12:00 AM)
Minimum temperature yesterday: 34 °F (at 11:00 PM)
Average temperature yesterday: 38 °F

Past Weeks' High & Low Weather Summary

 TemperatureHumidityPressure
High62 °F (Apr 13, 6:00 PM)100% (Apr 10, 3:00 PM)30.44 "Hg (Apr 10, 3:00 PM)
Low24 °F (Apr 16, 7:00 AM)25% (Apr 19, 6:00 PM)29.37 "Hg (Apr 11, 6:00 AM)
Average39 °F65%29.91 "Hg
* Reported Apr 9 10:00 PM — Apr 24 10:00 PM, Edmundston, Weather by CustomWeather, © 2015

Note: Actual official high and low records may vary slightly from our data, if they occured in-between our weather recording intervals... More about our weather records

Advertising

Edmundston weather history for previous 24 hours

 ConditionsComfort  
Time TempWeatherWind HumidityBarometerVisibility
10:00 PM
Fri, Apr 24
33 °FChilly.No wind94%29.57 "HgN/A
8:00 PM35 °FChilly.2 mph94%29.55 "HgN/A
7:00 PM36 °FChilly.3 mph91%29.54 "HgN/A
6:00 PM36 °FChilly.2 mph84%29.54 "HgN/A
5:00 PM37 °FChilly.5 mph89%29.53 "HgN/A
4:00 PM38 °FChilly.3 mph81%29.52 "HgN/A
3:00 PM37 °FChilly.5 mph85%29.52 "HgN/A
2:00 PM36 °FChilly.6 mph91%29.53 "HgN/A
1:00 PM36 °FChilly.6 mph90%29.53 "HgN/A
12:00 PM35 °FChilly.3 mph91%29.54 "HgN/A
11:00 AM34 °FChilly.5 mph92%29.54 "HgN/A
10:00 AM33 °FChilly.3 mph95%29.56 "HgN/A
9:00 AM32 °FChilly.2 mph96%29.56 "HgN/A
8:00 AM31 °FChilly.3 mph97%29.55 "HgN/A
7:00 AM31 °FChilly.3 mph97%29.55 "HgN/A
6:00 AM31 °FChilly.2 mph97%29.55 "HgN/A
5:00 AM31 °FChilly.1 mph96%29.56 "HgN/A
4:00 AM31 °FChilly.2 mph96%29.55 "HgN/A
3:00 AM32 °FChilly.5 mph96%29.56 "HgN/A
2:00 AM32 °FChilly.3 mph98%29.57 "HgN/A
1:00 AM33 °FChilly.3 mph96%29.57 "HgN/A
12:00 AM34 °FChilly.1 mph96%29.58 "HgN/A
11:00 PM
Thu, Apr 23
34 °FChilly.1 mph97%29.59 "HgN/A
Weather by CustomWeather, © 2015

See weather overviewHow to use our weather pages